Вернуться в каталог

DELTA 1 DEB

АктивенSSO
NORAD 21471·DEBRIS·🇺🇸 United States

Запущен Jun 12, 1975 с Vandenberg Space Force Base

Loading…

Ближайшие Пролёты (ближайшие 24 часа)

TLE

СвежийSource: Space-Track

Эпоха: Sep 14, 2026, 10:03 UTC

1 21471U 75052FF  26257.41909193  .00000304  00000-0  39602-3 0  9992
2 21471  99.9646  55.5409 0249231 128.1226 261.2305 13.57751167748563

Отслеживайте DELTA 1 DEB в реальном времени с AllMySat

Download on the App Store